Location: Boissi�res
(45.2500°N, 2.3667°E)
Time: 19:52:18
(UTC+00:00)

SME Rocket - Pass Details

Date: 03 March 2021
Orbit: 550 x 2652 km, 99.9° (Epoch: 17 April)

Event Time Altitude Azimuth Distance (km) Brightness Sun altitude
Rises 19:07:40 0° 17° (NNE) 4,927 7.6 -16.1°
Reaches altitude 10° 19:11:17 10° 22° (NNE) 3,605 6.8 -16.7°
Maximum altitude 19:19:00 51° 96° (E) 1,295 4.2 -18.1°
Drops below altitude 10° 19:24:05 10° 173° (S) 2,384 5.9 -18.9°
Sets 19:26:04 0° 179° (S) 3,145 6.6 -19.3°
